Location: Waco, TX
(31.5480°N, 97.1670°W)
Time: 01:41:46
(UTC-05:00)

ISS - Pass Details

Date: 16 October 2018
Orbit: 403 x 408 km, 51.6° (Epoch: 21 October)

Event Time Altitude Azimuth Distance (km) Brightness Sun altitude
Rises 11:35:39 0° 258° (WSW) 2,315 -0.2 43.1°
Reaches altitude 10° 11:38:10 10° 278° (W) 1,459 -1.2 43.4°
Maximum altitude 11:40:32 18° 324° (NW) 1,064 -2.0 43.6°
Drops below altitude 10° 11:42:55 10° 11° (N) 1,466 -1.2 43.9°
Sets 11:45:27 0° 30° (NNE) 2,330 -0.2 44.2°
